Terminal Aerodrome Forecast
Issued by NWS

Home | Current Version | Previous Version | Text Only | Print | Product List | Glossary On
Versions: 1 2 3 4 5 6 7 8 9 10 11 12 13 14 15 16 17 18 19 20 21 22 23 24 25 26 27
000
FTUS45 KREV 231100
TAFCXP
TAF
KCXP 231122Z 2312/2412 VRB04KT P6SM SCT150
     FM231800 20008KT P6SM SCT150
     FM232000 24013G23KT P6SM SCT150
     FM240000 27018G27KT P6SM SCT150
     FM240300 30009KT P6SM SKC=

USA.gov is the U.S. government's official web portal to all federal, state and local government web resources and services.